This is the latest recevied weather packets stored in our database for station/object OE3FJB-25. If no packets are shown the sender has not sent any weather packets the latest 10 day(s).
| Time | Temp. | Humidity | Pressure | Rain* | Wind** | Luminosity | Snow |
|---|---|---|---|---|---|---|---|
| 1777478303 | 10° C | 39% | 1025 hPa | - | - | - | - |
| 1777477105 | 10.56° C | 38% | 1024.9 hPa | - | - | - | - |
| 1777476507 | 10.56° C | 37% | 1024.9 hPa | - | - | - | - |
| 1777474711 | 11.11° C | 36% | 1024.8 hPa | - | - | - | - |
| 1777474112 | 11.67° C | 35% | 1024.8 hPa | - | - | - | - |
| 1777473513 | 11.67° C | 35% | 1024.9 hPa | - | - | - | - |
| 1777472915 | 11.67° C | 35% | 1024.7 hPa | - | - | - | - |
| 1777472316 | 11.67° C | 35% | 1024.9 hPa | - | - | - | - |
| 1777471717 | 11.67° C | 35% | 1024.9 hPa | - | - | - | - |
| 1777471119 | 11.67° C | 35% | 1024.8 hPa | - | - | - | - |
| 1777469921 | 12.22° C | 35% | 1024.8 hPa | - | - | - | - |
| 1777469323 | 12.22° C | 34% | 1024.8 hPa | - | - | - | - |
| 1777468724 | 11.67° C | 34% | 1024.9 hPa | - | - | - | - |
| 1777468125 | 12.22° C | 34% | 1024.8 hPa | - | - | - | - |
| 1777467527 | 11.67° C | 34% | 1024.9 hPa | - | - | - | - |
| 1777466329 | 11.67° C | 34% | 1025 hPa | - | - | - | - |
| 1777465731 | 11.67° C | 34% | 1025.1 hPa | - | - | - | - |
| 1777465132 | 11.67° C | 34% | 1025 hPa | - | - | - | - |
| 1777464532 | 11.67° C | 33% | 1025.1 hPa | - | - | - | - |
| 1777463933 | 12.22° C | 33% | 1025.1 hPa | - | - | - | - |
| 1777462736 | 12.22° C | 32% | 1025.2 hPa | - | - | - | - |
| 1777462137 | 12.78° C | 32% | 1025.3 hPa | - | - | - | - |
| 1777461538 | 12.78° C | 32% | 1025.4 hPa | - | - | - | - |
| 1777460940 | 12.78° C | 32% | 1025.3 hPa | - | - | - | - |
| 1777460341 | 12.22° C | 34% | 1025.6 hPa | - | - | - | - |
* Rain since midnight (hover to see other rain measurements)
** Current wind speed in m/s (hover to see current wind gust speed)